View from above orbital plane
|
View from above satellite
|
Ground track
|
The orbit data is extracted from the following two-line orbital elements,
1 23439U 94085A 13140.23235782 -.00000039 00000-0 10000-3 0 5788
2 23439 064.8123 107.1885 0152997 158.2218 202.5302 11.27558713757695
| Epoch (UTC): | 20 May 2013 05:34:35 |
| Eccentricity: | 0.0152997 |
| inclination: | 64.8123° |
| perigee height: | 1894 km |
| apogee height: | 2151 km |
| right ascension of ascending node: | 107.1885° |
| argument of perigee: | 158.2218° |
| revolutions per day: | 11.27558713 |
| mean anomaly at epoch: | 202.5302° |
| orbit number at epoch: | 75769 |
The dashed part of the orbit path shows where the satellite is in the earth's shadow,
|
|